CBY29 EGXC-EGXC

Flight info

Callsign CBY29
Flight time 0h 41m
Altitude 5000
Route OPR
Aircraft EUFI/M-SDE2E3FGHIJ4J5M1RWXYZ/LB1D1

Departure

Time 2026-04-18 20:52
Airport RAF Coningsby (EGXC)

Arrival

Time 2026-04-18 21:33
Airport RAF Coningsby (EGXC)
Time Latitude Longitude Altitude Speed Heading
2026-04-18 20:42 53.09409 -0.18065 29 ft 0 kts 249°
2026-04-18 20:47 53.09408 -0.18070 26 ft 4 kts 249°
2026-04-18 20:47 53.09411 -0.18177 27 ft 12 kts 292°
2026-04-18 20:47 53.09385 -0.18273 27 ft 10 kts 202°
2026-04-18 20:48 53.09322 -0.18318 27 ft 10 kts 204°
2026-04-18 20:48 53.09270 -0.18259 26 ft 12 kts 114°
2026-04-18 20:48 53.09231 -0.18116 26 ft 15 kts 115°
2026-04-18 20:48 53.09234 -0.17949 25 ft 16 kts 72°
2026-04-18 20:49 53.09271 -0.17759 27 ft 19 kts 71°
2026-04-18 20:49 53.09316 -0.17534 27 ft 22 kts 72°
2026-04-18 20:49 53.09364 -0.17287 28 ft 24 kts 72°
2026-04-18 20:49 53.09418 -0.17015 30 ft 25 kts 72°
2026-04-18 20:50 53.09473 -0.16737 30 ft 25 kts 72°
2026-04-18 20:50 53.09528 -0.16460 30 ft 25 kts 72°
2026-04-18 20:50 53.09582 -0.16185 30 ft 25 kts 72°
2026-04-18 20:50 53.09636 -0.15913 31 ft 25 kts 72°
2026-04-18 20:51 53.09689 -0.15643 31 ft 25 kts 72°
2026-04-18 20:51 53.09742 -0.15372 31 ft 25 kts 72°
2026-04-18 20:51 53.09794 -0.15099 31 ft 25 kts 72°
2026-04-18 20:51 53.09820 -0.14828 32 ft 24 kts 109°
2026-04-18 20:52 53.09694 -0.14697 30 ft 19 kts 234°
2026-04-18 20:52 53.09682 -0.14751 30 ft 0 kts 252°
2026-04-18 20:52 53.09582 -0.15263 29 ft 175 kts 252°
2026-04-18 20:52 53.09320 -0.16921 4272 ft 111 kts 251°
2026-04-18 20:53 53.08985 -0.18839 6171 ft 351 kts 260°
2026-04-18 20:53 53.08544 -0.22682 6201 ft 411 kts 259°
2026-04-18 20:53 53.07853 -0.27355 6245 ft 408 kts 246°
2026-04-18 20:53 53.05675 -0.29387 4103 ft 386 kts 173°
2026-04-18 20:54 53.03195 -0.27555 3153 ft 392 kts 144°
2026-04-18 20:54 53.02403 -0.23559 3237 ft 393 kts 73°
2026-04-18 20:54 53.03214 -0.19238 3265 ft 388 kts 71°
2026-04-18 20:54 53.04035 -0.14966 3043 ft 388 kts 71°
2026-04-18 20:55 53.03937 -0.11201 5033 ft 363 kts 105°
2026-04-18 20:55 53.03326 -0.06963 2591 ft 393 kts 113°
2026-04-18 20:55 53.02301 -0.02769 2681 ft 391 kts 114°
2026-04-18 20:55 53.01244 0.01368 2952 ft 391 kts 114°
2026-04-18 20:56 53.00175 0.05514 3103 ft 391 kts 114°
2026-04-18 20:56 52.99100 0.09661 3228 ft 390 kts 114°
2026-04-18 20:56 52.98026 0.13789 3340 ft 390 kts 114°
2026-04-18 20:56 52.96950 0.17919 3454 ft 389 kts 114°
2026-04-18 20:57 52.95873 0.22049 3569 ft 390 kts 114°
2026-04-18 20:57 52.94807 0.26216 3672 ft 396 kts 101°
2026-04-18 20:57 52.96228 0.29435 3450 ft 374 kts 20°
2026-04-18 20:57 52.98658 0.31111 3561 ft 379 kts 19°
2026-04-18 20:58 53.00974 0.32989 4013 ft 392 kts 17°
2026-04-18 20:58 53.03100 0.35403 4039 ft 391 kts 42°
2026-04-18 20:58 53.04877 0.34320 3828 ft 363 kts 257°
2026-04-18 20:58 53.03111 0.34362 3738 ft 394 kts 86°
2026-04-18 20:59 53.04574 0.38131 3885 ft 378 kts 24°
2026-04-18 20:59 53.06818 0.37744 4098 ft 370 kts 335°
2026-04-18 20:59 53.09198 0.37012 3702 ft 318 kts
2026-04-18 20:59 53.11499 0.36167 3107 ft 376 kts 20°
2026-04-18 21:00 53.10937 0.37820 3257 ft 333 kts 253°
2026-04-18 21:00 53.11836 0.38174 2690 ft 379 kts 143°
2026-04-18 21:00 53.09697 0.36581 2999 ft 365 kts 221°
2026-04-18 21:00 53.07728 0.33981 3872 ft 316 kts 217°
2026-04-18 21:01 53.05590 0.35078 5954 ft 402 kts 144°
2026-04-18 21:01 53.04361 0.38470 2626 ft 373 kts 42°
2026-04-18 21:01 53.06658 0.37877 1734 ft 359 kts 332°
2026-04-18 21:01 53.06958 0.37753 6217 ft 305 kts 151°
2026-04-18 21:02 53.07689 0.37319 1618 ft 373 kts 332°
2026-04-18 21:02 53.09379 0.40911 1864 ft 387 kts 162°
2026-04-18 21:02 53.06876 0.42392 1937 ft 377 kts 163°
2026-04-18 21:03 53.04401 0.43808 1606 ft 372 kts 163°
2026-04-18 21:03 53.02400 0.44996 4306 ft 71 kts 83°
2026-04-18 21:03 53.04169 0.44895 4794 ft 393 kts 358°
2026-04-18 21:03 53.07083 0.44906 2912 ft 395 kts 353°
2026-04-18 21:04 53.09210 0.43153 2307 ft 358 kts 279°
2026-04-18 21:04 53.09704 0.39149 2713 ft 353 kts 280°
2026-04-18 21:04 53.10489 0.35419 2636 ft 359 kts 339°
2026-04-18 21:04 53.11885 0.38215 2066 ft 396 kts 86°
2026-04-18 21:05 53.12026 0.42725 2009 ft 396 kts 87°
2026-04-18 21:05 53.12952 0.44700 2360 ft 344 kts 282°
2026-04-18 21:05 53.13321 0.40476 2262 ft 357 kts 277°
2026-04-18 21:05 53.13302 0.36400 2016 ft 359 kts 245°
2026-04-18 21:06 53.11286 0.34380 1653 ft 372 kts 175°
2026-04-18 21:06 53.08824 0.35696 1851 ft 373 kts 162°
2026-04-18 21:06 53.06377 0.37189 1924 ft 379 kts 162°
2026-04-18 21:06 53.04743 0.38194 1949 ft 378 kts 161°
2026-04-18 21:07 53.02722 0.40700 1787 ft 385 kts 104°
2026-04-18 21:07 53.02578 0.45140 2023 ft 387 kts 91°
2026-04-18 21:07 53.03288 0.49141 2085 ft 373 kts 26°
2026-04-18 21:07 53.05524 0.48365 1900 ft 350 kts 298°
2026-04-18 21:08 53.05951 0.44447 1430 ft 347 kts 277°
2026-04-18 21:08 53.06237 0.40464 1497 ft 355 kts 277°
2026-04-18 21:08 53.06817 0.36601 1457 ft 350 kts 303°
2026-04-18 21:08 53.08852 0.34557 1617 ft 361 kts 341°
2026-04-18 21:09 53.11286 0.33589 1780 ft 364 kts
2026-04-18 21:09 53.13417 0.35766 1872 ft 373 kts 57°
2026-04-18 21:09 53.13758 0.40023 1983 ft 383 kts 109°
2026-04-18 21:09 53.12148 0.43481 2272 ft 383 kts 140°
2026-04-18 21:10 53.10051 0.46161 2585 ft 378 kts 160°
2026-04-18 21:10 53.07511 0.46724 2521 ft 364 kts 195°
2026-04-18 21:10 53.05165 0.45195 3007 ft 363 kts 207°
2026-04-18 21:10 53.03504 0.42245 3553 ft 357 kts 252°
2026-04-18 21:11 53.03370 0.38167 3664 ft 359 kts 282°
2026-04-18 21:11 53.04719 0.34901 3240 ft 363 kts 333°
2026-04-18 21:11 53.07243 0.34828 2990 ft 366 kts
2026-04-18 21:11 53.08692 0.32308 2805 ft 351 kts 254°
2026-04-18 21:12 53.07889 0.28396 2749 ft 355 kts 251°
2026-04-18 21:12 53.07066 0.24545 2645 ft 354 kts 251°
2026-04-18 21:12 53.06241 0.20741 2542 ft 350 kts 251°
2026-04-18 21:12 53.05408 0.16916 2412 ft 346 kts 251°
2026-04-18 21:13 53.04573 0.13102 2382 ft 351 kts 251°
2026-04-18 21:13 53.03742 0.09316 2380 ft 348 kts 251°
2026-04-18 21:13 53.02904 0.05494 2374 ft 352 kts 251°
2026-04-18 21:13 53.02071 0.01710 2369 ft 351 kts 250°
2026-04-18 21:14 53.01233 -0.02102 2360 ft 353 kts 251°
2026-04-18 21:14 53.00388 -0.05921 2331 ft 353 kts 251°
2026-04-18 21:14 52.99542 -0.09717 2296 ft 349 kts 251°
2026-04-18 21:14 52.98692 -0.13507 2253 ft 351 kts 251°
2026-04-18 21:15 52.97680 -0.17202 2169 ft 357 kts 229°
2026-04-18 21:15 52.95384 -0.18434 2364 ft 373 kts 169°
2026-04-18 21:15 52.93394 -0.15791 2110 ft 379 kts 125°
2026-04-18 21:15 52.92042 -0.12032 1862 ft 378 kts 115°
2026-04-18 21:16 52.91687 -0.07774 1893 ft 382 kts 74°
2026-04-18 21:16 52.93245 -0.04377 1988 ft 375 kts 35°
2026-04-18 21:16 52.95390 -0.01902 2066 ft 376 kts 31°
2026-04-18 21:16 52.97611 0.00379 2103 ft 377 kts 28°
2026-04-18 21:17 52.99903 0.02414 2136 ft 371 kts 24°
2026-04-18 21:17 53.02285 0.04204 2143 ft 376 kts 20°
2026-04-18 21:17 53.04706 0.05733 2124 ft 370 kts 16°
2026-04-18 21:17 53.07140 0.07018 2092 ft 371 kts 18°
2026-04-18 21:18 53.08644 0.10354 1995 ft 388 kts 81°
2026-04-18 21:18 53.08196 0.14666 1988 ft 386 kts 121°
2026-04-18 21:18 53.06320 0.17712 2365 ft 376 kts 155°
2026-04-18 21:18 53.04246 0.20306 2862 ft 388 kts 119°
2026-04-18 21:19 53.04297 0.24604 2802 ft 384 kts 58°
2026-04-18 21:19 53.06341 0.27172 3050 ft 373 kts
2026-04-18 21:19 53.08826 0.26528 3277 ft 365 kts 340°
2026-04-18 21:19 53.11222 0.25128 3312 ft 364 kts 336°
2026-04-18 21:20 53.13301 0.22826 3790 ft 359 kts 310°
2026-04-18 21:20 53.14507 0.19237 3765 ft 351 kts 285°
2026-04-18 21:20 53.14705 0.15448 3335 ft 310 kts 271°
2026-04-18 21:20 53.14713 0.11980 3118 ft 295 kts 270°
2026-04-18 21:21 53.14386 0.08638 2974 ft 295 kts 253°
2026-04-18 21:21 53.13763 0.05408 2609 ft 288 kts 253°
2026-04-18 21:21 53.13142 0.02214 2227 ft 286 kts 253°
2026-04-18 21:21 53.12519 -0.00976 1849 ft 294 kts 253°
2026-04-18 21:22 53.11902 -0.04126 1449 ft 284 kts 253°
2026-04-18 21:22 53.11284 -0.07273 1073 ft 285 kts 253°
2026-04-18 21:22 53.10680 -0.10378 870 ft 289 kts 253°
2026-04-18 21:22 53.10064 -0.13551 869 ft 282 kts 253°
2026-04-18 21:23 53.09423 -0.16838 877 ft 316 kts 250°
2026-04-18 21:23 53.07847 -0.17905 1328 ft 255 kts 140°
2026-04-18 21:23 53.07657 -0.15263 1410 ft 256 kts 72°
2026-04-18 21:23 53.08135 -0.12588 1399 ft 225 kts 72°
2026-04-18 21:24 53.08809 -0.10369 1269 ft 233 kts 31°
2026-04-18 21:24 53.10131 -0.10068 1028 ft 159 kts 312°
2026-04-18 21:24 53.10273 -0.11709 439 ft 157 kts 255°
2026-04-18 21:24 53.09928 -0.13504 204 ft 150 kts 255°
2026-04-18 21:25 53.09625 -0.15023 30 ft 130 kts 253°
2026-04-18 21:25 53.09273 -0.16833 433 ft 180 kts 254°
2026-04-18 21:25 53.08848 -0.18610 908 ft 162 kts 227°
2026-04-18 21:25 53.07681 -0.18835 1023 ft 210 kts 137°
2026-04-18 21:26 53.07422 -0.16317 1199 ft 252 kts 71°
2026-04-18 21:26 53.07924 -0.13625 1238 ft 236 kts 70°
2026-04-18 21:26 53.08412 -0.11063 1227 ft 228 kts 65°
2026-04-18 21:26 53.09477 -0.09510 1082 ft 197 kts 357°
2026-04-18 21:27 53.10407 -0.10602 730 ft 160 kts 274°
2026-04-18 21:27 53.10131 -0.12469 296 ft 184 kts 254°
2026-04-18 21:27 53.09769 -0.14307 84 ft 146 kts 253°
2026-04-18 21:27 53.09453 -0.15914 129 ft 170 kts 253°
2026-04-18 21:28 53.09068 -0.17875 923 ft 183 kts 252°
2026-04-18 21:28 53.08292 -0.19518 1226 ft 201 kts 204°
2026-04-18 21:28 53.06926 -0.19174 1270 ft 220 kts 120°
2026-04-18 21:28 53.07025 -0.16637 1232 ft 240 kts 71°
2026-04-18 21:29 53.07549 -0.13918 1250 ft 251 kts 69°
2026-04-18 21:29 53.08083 -0.11146 1228 ft 243 kts 70°
2026-04-18 21:29 53.08880 -0.08813 1192 ft 230 kts 25°
2026-04-18 21:29 53.10333 -0.08714 1044 ft 203 kts 313°
2026-04-18 21:30 53.10461 -0.10749 639 ft 196 kts 254°
2026-04-18 21:30 53.10039 -0.12925 302 ft 195 kts 254°
2026-04-18 21:30 53.09672 -0.14805 35 ft 149 kts 252°
2026-04-18 21:30 53.09244 -0.17040 724 ft 247 kts 252°
2026-04-18 21:31 53.07913 -0.18435 1246 ft 247 kts 162°
2026-04-18 21:31 53.07370 -0.16309 1332 ft 232 kts 71°
2026-04-18 21:31 53.07827 -0.13828 1354 ft 210 kts 69°
2026-04-18 21:31 53.08249 -0.11507 1340 ft 213 kts 72°
2026-04-18 21:32 53.09162 -0.09640 1309 ft 221 kts 10°
2026-04-18 21:32 53.10431 -0.10161 1109 ft 169 kts 290°
2026-04-18 21:32 53.10195 -0.12072 522 ft 170 kts 254°
2026-04-18 21:32 53.09875 -0.13755 204 ft 155 kts 255°
2026-04-18 21:33 53.09562 -0.15358 29 ft 129 kts 253°
2026-04-18 21:33 53.09329 -0.16558 29 ft 93 kts 252°
2026-04-18 21:33 53.09154 -0.17449 27 ft 70 kts 251°
2026-04-18 21:33 53.09134 -0.17769 25 ft 17 kts 295°
2026-04-18 21:34 53.09183 -0.17936 25 ft 15 kts 292°
2026-04-18 21:34 53.09222 -0.17973 25 ft 6 kts 36°
2026-04-18 21:34 53.09248 -0.17879 25 ft 12 kts 71°
2026-04-18 21:34 53.09271 -0.17764 28 ft 8 kts 68°
2026-04-18 21:35 53.09316 -0.17735 26 ft 7 kts 24°
2026-04-18 21:35 53.09353 -0.17725 27 ft 4 kts 311°
2026-04-18 21:35 53.09372 -0.17790 27 ft 9 kts 294°
2026-04-18 21:35 53.09402 -0.17902 27 ft 11 kts 293°
2026-04-18 21:36 53.09422 -0.18015 27 ft 9 kts 244°
2026-04-18 21:36 53.09412 -0.18054 26 ft 2 kts 248°
2026-04-18 21:36 53.09410 -0.18062 26 ft 0 kts 246°